Probability
0 0 0 0 0 0 0 0 0 0 0 0 0 0 0 0 0 0 0 0 0 0 0 0 0 0 0 0 0 0 0 0 0 0 0 0 0 0 0 0 0 0 0
0 0 0 0 0 0 0 0 0 0 0 0 0 0 0 0 0 0 0 0 0 0 0 0 0 0 0 0 0 0 0 0 0 0 0 0 0 0 0 0 0 0 0
0 0 0 0 0 0 0 0 0 0 0 0 0 0 0 0 0 0 0 0 0 0 0 0 0 0 0 0 0 0 0 0 0 0 0 0 0 0 0 0 0 0 0
0 0 0 0 0 0 0 0 0 0 0 0 0 0 0 0 0 0 0 0 0 0 0 0 0 0 0 0 0 0 0 0 0 0 0 0 0 0 0 0 0 0 0
0 0 0 0 0 0 0 0 0 0 0 0 0 0 0 0 0 0 0 0 0 0 0 0 0 0 0 0 0 0 0 0 0 0 0 0 0 0 0 0 0 0 0
0 0 0 0 0 0 0 0 0 0 0 0 0 0 0 0 0 0 0 0 0 0 0 0 0 0 0 0 0 0 0 0 0 0 0 0 0 0 0 0 0 0 0
0 0 0 0 0 0 0 0 0 0 0 0 0 0 0 0 0 0 0 0 0 0 0 0 0 0 0 0 0 0 0 0 0 0 0 0 0 0 0 0 0 0 0
0 0 0 0 0 0 0 0 0 0 0 0 0 0 0 0 0 0 0 0 0 0 0 0 0 0 0 0 0 0 0 0 0 0 0 0 0 0 0 0 0 0 0
0 0 0 0 0 0 0 0 0 0 0 0 0 0 0 0 0 0 0 0 0 0 0 0 0 0 0 0 0 0 0 0 0 0 0 0 0 0 0 0 0 0 0
0 0 0 0 0 0 0 0 0 0 0 0 0 0 0 0 0 0 0 0 0 0 0 0 0 0 0 0 0 0 0 0 0 0 0 0 0 0 0 0 0 0 0
0 0 0 0 0 0 0 0 0 0 0 0 0 0 0 0 0 0 0 0 0 0 0 0 0 0 0 0 0 0 0 0 0 0 0 0 0 0 0 0 0 0 0
0 0 0 0 0 0 0 0 0 0 0 0 0 0 0 0 0 0 0 0 0 0 0 0 0 0 0 0 0 0 0 0 0 0 0 0 0 0 0 0 0 0 0
0 0 0 0 0 0 0 0 0 0 0 0 0 0 0 0 0 0 0 0 0 0 0 0 0 0 0 0 0 0 0 0 0 0 0 0 0 0 0 0 0 0 0
0 0 0 0 0 0 0 0 0 0 0 0 0 0 0 0 0 0 0 0 0 0 0 0 0 0 0 0 0 0 0 0 0 0 0 0 0 0 0 0 0 0 0
0 0 0 0 0 0 0 0 0 0 0 0 0 0 0 0 0 0 0 0 0 0 0 0 0 0 0 0 0 0 0 0 0 0 0 0 0 0 0 0 0 0 0
0 0 0 0 0 0 0 0 0 0 0 0 0 0 0 0 0 0 0 0 0 0 0 0 0 0 0 0 0 0 0 0 0 0 0 0 0 0 0 0 0 0 0
0 0 0 0 0 0 0 0 0 0 0 0 0 0 0 0 0 0 0 0 0 0 0 0 0 0 0 0 0 0 0 0 0 0 0 0 0 0 0 0 0 0 0
0 0 0 0 0 0 0 0 0 0 0 0 0 0 0 0 0 0 0 0 0 0 0 0 0 0 0 0 0 0 0 0 0 0 0 0 0 0 0 0 0 0 0
0 0 0 0 0 0 0 0 0 0 0 0 0 0 0 0 0 0 0 0 0 0 0 0 0 0 0 0 0 0 0 0 0 0 0 0 0 0 0 0 0 0 0
0 0 0 0 0 0 0 0 0 0 0 0 0 0 0 0 0 0 0 0 0 0 0 0 0 0 0 0 0 0 0 0 0 0 0 0 0 0 0 0 0 0 0
0 0 0 0 0 0 0 0 0 0 0 0 0 0 0 0 0 0 0 0 0 0 0 0 0 0 0 0 0 0 0 0 0 0 0 0 0 0 0 0 0 0 0
0 0 0 0 0 0 0 0 0 0 0 0 0 0 0 0 0 0 0 0 0 0 0 0 0 0 0 0 0 0 0 0 0 0 0 0 0 0 0 0 0 0 0
0 0 0 0 0 0 0 0 0 0 0 0 0 0 0 0 0 0 0 0 0 0 0 0 0 0 0 0 0 0 0 0 0 0 0 0 0 0 0 0 0 0 0
0 0 0 0 0 0 0 0 0 0 0 0 0 0 0 0 0 0 0 0 0 0 0 0 0 0 0 0 0 0 0 0 0 0 0 0 0 0 0 0 0 0 0
0 0 0 0 0 0 0 0 0 0 0 0 0 0 0 0 0 0 0 0 0 0 0 0 0 0 0 0 0 0 0 0 0 0 0 0 0 0 0 0 0 0 0
0 0 0 0 0 0 0 0 0 0 0 0 0 0 0 0 0 0 0 0 0 0 0 0 0 0 0 0 0 0 0 0 0 0 0 0 0 0 0 0 0 0 0
Wind_Speed
5 4 5 4 4 4 4 4 4 3 3 3 3 3 3 2 2 3 2 3 3 3 3 3 3 2 2 2 2 2 2 2 1 2 2 2 3 3 4 4 3 3 4
5 5 5 4 4 4 4 4 4 3 3 3 3 3 3 2 2 3 3 3 3 3 2 3 2 2 3 2 2 2 1 1 2 1 2 2 3 3 3 3 4 4 4
5 5 5 4 4 4 4 4 4 4 3 3 4 3 3 2 2 2 3 3 3 2 2 2 1 2 2 2 2 1 1 1 1 1 2 2 2 2 3 4 4 3 5
6 6 6 6 5 5 4 4 4 4 4 4 3 3 3 3 3 3 3 3 2 2 2 2 1 1 1 0 1 1 1 1 1 1 1 2 2 3 2 3 4 3 4
6 6 7 6 5 5 4 4 4 4 4 4 4 3 2 3 3 3 3 3 2 1 1 1 0 0 0 1 0 0 1 1 1 1 1 2 2 3 3 2 3 4 4
7 7 6 6 6 6 5 5 4 4 3 3 4 4 3 2 4 5 4 3 2 2 0 1 1 1 2 3 2 1 0 1 1 1 1 2 3 3 2 2 2 3 4
7 6 6 6 6 6 6 5 5 4 4 4 3 3 3 2 4 4 5 4 3 2 1 1 1 1 2 1 3 3 3 3 2 2 2 3 3 3 2 2 2 3 4
6 6 6 6 6 5 5 5 5 4 4 4 3 3 3 2 4 4 4 3 2 1 2 2 2 1 1 1 1 2 2 3 3 2 3 4 4 4 3 3 4 4 4
7 7 7 7 6 6 6 6 5 4 4 3 3 4 3 3 4 4 4 2 1 1 1 2 2 2 3 2 0 1 3 4 4 5 6 6 7 7 5 2 2 3 4
8 7 7 7 7 7 7 6 4 4 4 4 3 3 4 3 4 5 5 2 2 1 1 2 3 3 3 2 1 1 3 4 4 5 5 6 5 5 6 3 2 2 3
6 6 6 6 6 6 5 4 4 4 4 3 3 3 3 4 5 6 6 3 3 2 2 2 3 5 5 4 3 3 5 5 3 3 3 3 3 3 3 3 3 3 3
6 6 6 5 5 5 5 4 4 5 4 4 3 3 3 3 5 6 7 6 5 4 3 3 4 6 6 5 4 5 7 5 2 2 3 3 3 4 4 4 4 5 5
6 6 5 5 4 5 5 5 4 4 4 4 3 4 3 3 4 7 7 8 7 5 4 6 5 6 5 5 6 7 5 2 2 2 4 4 4 4 4 4 4 4 5
6 6 5 5 4 4 4 4 4 4 4 4 4 4 4 3 3 3 4 4 6 5 4 4 6 5 4 4 5 4 3 3 3 4 4 4 3 3 3 3 3 3 4
6 5 5 5 5 4 4 4 5 6 7 7 6 5 5 5 7 9 6 5 4 5 3 1 1 1 2 3 3 3 3 3 3 3 3 4 4 4 4 3 3 3 4
5 5 4 4 3 3 3 2 4 5 7 9 9 7 6 8 8 9 9 9 9 8 4 2 3 4 4 4 4 4 3 4 4 4 4 4 4 4 5 4 3 4 5
6 5 4 4 4 4 4 4 3 3 4 6 8 9 9 8 9 8 8 8 7 7 4 4 4 5 5 5 5 5 5 5 4 4 4 4 4 4 4 4 4 5 5
4 5 5 4 4 4 4 4 4 4 3 4 5 8 9 9 9 8 6 4 2 3 4 5 5 5 5 5 5 5 5 4 4 4 4 5 4 4 5 5 5 6 6
3 3 3 3 3 4 4 4 3 4 4 4 3 4 6 6 6 6 5 3 4 4 5 5 6 5 5 6 6 5 5 5 5 5 5 5 5 5 5 6 6 8 8
3 4 3 2 2 3 3 3 4 4 4 4 4 4 2 2 2 3 3 4 4 5 5 6 5 5 5 5 5 5 5 5 5 5 5 5 5 5 6 7 6 6 7
2 2 3 2 2 3 3 4 4 4 4 4 5 5 6 4 5 5 4 5 5 5 5 5 5 5 5 5 5 5 6 6 6 5 5 5 5 5 6 6 7 7 7
2 2 2 2 2 2 3 3 3 4 5 5 4 4 6 4 4 4 5 5 5 5 5 4 5 5 5 5 5 5 6 6 6 5 6 5 5 6 6 6 6 6 7
2 1 1 1 2 3 2 2 3 3 4 4 4 3 3 4 4 4 5 5 4 4 4 4 5 5 5 5 5 5 6 6 6 6 6 6 6 6 6 7 8 8 8
2 1 1 1 1 2 2 3 3 3 3 3 3 3 4 4 4 5 5 4 4 4 4 4 5 7 8 6 5 5 6 6 6 5 7 7 7 6 6 7 8 9 9
1 1 1 1 1 2 2 2 3 3 3 3 3 3 3 3 4 4 4 4 4 4 5 5 5 6 8 10 8 7 9 10 9 6 5 6 7 8 8 8 8 8 9
1 0 0 0 1 1 2 2 2 3 3 3 3 3 3 3 4 4 4 4 4 4 5 5 7 8 9 8 9 10 11 11 11 10 6 5 7 7 8 8 9 9 9
Wind_Direction
173 174 165 170 165 159 163 171 169 158 145 141 147 132 117 103 90 89 95 88 86 71 65 74 57 49 46 35 47 60 67 104 125 301 305 324 353 352 348 352 352 354 349
179 171 169 168 161 164 174 177 165 158 155 156 147 134 127 119 111 113 116 103 104 93 80 78 56 57 47 33 41 43 44 85 131 314 322 335 338 332 336 343 347 348 335
175 171 170 169 169 176 180 171 159 154 150 149 140 141 143 143 134 134 126 115 113 113 112 106 89 76 49 29 41 39 18 32 81 120 314 319 319 335 344 337 337 333 330
175 173 177 181 182 181 175 165 160 153 151 156 156 156 158 155 148 141 129 119 111 108 111 121 134 133 148 133 60 42 49 42 37 42 336 326 319 320 350 337 332 329 324
174 179 186 185 179 169 166 167 163 157 158 159 152 150 154 151 156 151 145 135 126 108 70 78 118 146 150 147 114 169 108 76 36 20 339 338 328 333 327 313 318 314 309
178 187 179 173 170 170 173 166 162 163 157 149 154 152 154 162 157 155 146 135 133 133 148 312 328 8 2 3 357 353 141 141 196 192 274 283 283 281 292 304 311 332 315
179 181 176 172 171 176 175 165 170 169 156 155 163 156 161 176 169 160 153 141 144 159 180 210 318 351 7 0 345 351 343 333 292 214 231 254 263 264 273 290 285 281 276
180 181 180 175 178 175 167 170 174 163 161 166 171 171 168 197 192 179 164 141 144 180 202 199 201 264 290 288 324 341 317 307 297 275 236 251 258 251 230 247 261 282 282
185 191 188 180 177 175 178 182 176 163 168 174 175 175 179 216 209 194 170 143 157 231 243 215 201 221 267 284 334 308 313 309 303 300 293 295 298 298 295 303 313 317 305
195 194 187 180 179 184 189 185 174 170 183 180 184 191 192 207 215 209 192 161 185 235 262 263 246 239 255 261 220 235 281 286 300 313 315 315 307 303 302 269 239 266 286
187 177 174 178 183 185 182 176 171 173 174 181 193 208 208 216 223 218 202 182 196 213 232 250 255 262 265 270 257 230 257 279 279 283 291 299 302 297 290 271 240 227 249
165 169 177 180 182 175 165 171 170 169 175 192 200 225 236 234 224 222 216 212 204 202 227 237 245 258 265 273 271 278 288 300 292 292 292 290 289 286 280 273 262 249 241
164 176 180 178 181 169 168 173 171 173 183 201 203 221 240 240 238 233 229 228 222 217 229 233 241 253 263 273 279 287 292 279 266 269 271 270 262 264 276 284 284 276 273
169 179 178 177 180 176 175 178 179 187 195 203 209 221 233 238 236 234 233 235 233 233 237 249 256 266 259 264 280 283 263 246 243 247 259 263 269 273 273 271 276 283 287
173 177 179 182 181 185 191 197 196 205 201 200 211 211 211 231 237 224 214 221 217 219 204 216 242 258 264 270 271 269 263 264 260 253 256 268 274 275 274 270 262 265 267
174 179 181 180 181 182 186 226 243 228 226 219 216 213 225 231 240 236 233 232 224 211 191 214 232 237 244 252 258 264 257 251 250 251 253 257 265 269 274 275 266 263 270
180 184 182 181 182 185 187 194 230 271 259 241 233 229 229 237 240 239 237 234 227 205 211 229 235 238 242 245 246 249 254 252 245 242 247 253 259 265 269 274 275 275 275
176 186 185 188 189 192 197 202 204 213 239 259 253 243 240 241 241 239 231 212 232 214 222 233 240 242 241 243 246 248 252 253 245 244 246 250 251 257 265 269 270 271 276
175 186 189 190 193 199 202 204 209 217 228 242 257 265 246 241 243 241 208 201 221 230 233 238 240 241 243 244 246 246 246 246 244 242 245 247 247 249 258 262 266 271 273
192 209 198 192 196 202 204 208 217 224 232 238 241 243 236 210 231 237 221 224 232 240 241 243 245 246 246 247 248 247 248 247 245 245 246 248 247 246 254 260 264 269 270
184 204 210 205 207 212 214 220 222 223 230 236 242 237 215 216 226 228 226 225 230 237 244 247 248 249 250 249 246 247 248 249 246 244 244 247 248 250 253 257 262 266 270
179 193 202 208 216 223 230 230 228 228 231 235 245 245 227 224 231 235 233 234 232 233 237 238 244 245 243 243 245 248 250 251 249 246 248 250 251 253 254 257 262 268 270
173 191 216 228 220 228 236 239 238 239 239 239 238 241 235 231 235 238 238 237 237 239 239 237 244 251 250 245 243 240 243 248 247 243 246 251 251 250 252 257 262 267 268
156 173 202 233 239 235 235 243 245 243 243 245 245 242 241 240 241 243 244 245 245 246 245 243 245 251 256 256 249 245 246 251 252 249 246 250 253 253 254 257 261 264 266
132 168 207 238 248 249 253 257 255 250 250 249 247 246 245 246 249 253 253 252 254 256 259 257 254 255 259 259 258 256 256 257 259 259 256 250 252 254 256 259 262 265 266
111 134 260 290 275 269 265 266 267 263 258 258 254 250 251 254 256 257 258 257 261 264 266 264 259 259 262 261 260 261 263 263 263 262 259 257 257 259 259 260 263 264 267